Home   Weather   Hobart   Past weeks

Flag for Australia Past Weather in Hobart, Tasmania, Australia — Yesterday and Last 2 Weeks

Now
54 °F

Passing clouds.


Feels Like: 50 °F
Forecast: 47 / 68 °F
Wind: 10 mph from Northwest

Location: Hobart Airport

Current Time: Apr 30, 2017 at 11:31:38 pm

Latest Report: Apr 30, 2017 at 10:30 pm


Visibility: N/A

Pressure: 29.89 "Hg

Humidity: 72%

Dew Point: 45 °F

Location of HobartLocation

Past Weather in Hobart — Graph

°F

Hobart Temperature Yesterday

Maximum temperature yesterday: 64 °F (at 12:00 pm)
Minimum temperature yesterday: 52 °F (at 6:00 am)
Average temperature yesterday: 58 °F

High & Low Weather Summary for the Past Weeks

 TemperatureHumidityPressure
High75 °F (Apr 21, 12:00 pm)100% (Apr 24, 5:00 am)30.39 "Hg (Apr 24, 5:00 am)
Low39 °F (Apr 27, 2:00 am)32% (Apr 17, 3:30 pm)29.47 "Hg (Apr 25, 11:30 pm)
Average57 °F72%30.07 "Hg
* Reported Apr 15 10:00 pm — Apr 30 10:30 pm, Hobart, Weather by CustomWeather, © 2017

Note: Actual official high and low records may vary slightly from our data, if they occured in-between our weather recording intervals... More about our weather records

Advertising

Hobart Weather History for the Previous 24 Hours

Scroll right to see more
 ConditionsComfort  
Time TempWeatherWind HumidityBarometerVisibility
10:30 pm
Sun, Apr 30
54 °FPassing clouds.10 mph72%29.89 "HgN/A
10:00 pm54 °FPassing clouds.12 mph72%29.89 "HgN/A
9:30 pm54 °FPassing clouds.13 mph72%29.89 "HgN/A
9:00 pm54 °FPassing clouds.14 mph72%29.92 "HgN/A
8:30 pm54 °FPassing clouds.12 mph72%29.89 "HgN/A
8:00 pm55 °FPassing clouds.12 mph67%29.89 "HgN/A
7:30 pm55 °FClear.10 mph67%29.92 "Hg10 mi
7:00 pm57 °FPassing clouds.7 mph63%29.92 "HgN/A
6:30 pm57 °FPassing clouds.9 mph63%29.92 "HgN/A
6:00 pm59 °FPassing clouds.13 mph59%29.92 "HgN/A
5:30 pm55 °FPassing clouds.No wind82%29.92 "HgN/A
5:00 pm59 °FPassing clouds.6 mph72%29.92 "HgN/A
4:30 pm61 °FSunny.7 mph68%29.92 "Hg10 mi
4:00 pm64 °FSunny.8 mph60%29.92 "Hg10 mi
3:30 pm64 °FSunny.8 mph56%29.92 "Hg10 mi
3:00 pm64 °FSunny.6 mph56%29.92 "Hg10 mi
2:30 pm66 °FSunny.6 mph52%29.95 "Hg10 mi
2:00 pm66 °FSunny.7 mph49%29.95 "Hg10 mi
1:30 pm64 °FSunny.9 mph52%29.95 "Hg10 mi
1:00 pm64 °FSunny.9 mph52%29.98 "Hg10 mi
12:30 pm63 °FPassing clouds.12 mph52%30.01 "HgN/A
12:00 pm63 °FPassing clouds.13 mph52%30.01 "HgN/A
11:30 am61 °FPassing clouds.10 mph55%30.04 "HgN/A
11:00 am59 °FPassing clouds.10 mph55%30.07 "HgN/A
10:00 am55 °FPassing clouds.10 mph67%30.07 "HgN/A
9:30 am54 °FPassing clouds.12 mph72%30.09 "HgN/A
9:00 am52 °FPassing clouds.10 mph77%30.09 "HgN/A
8:30 am50 °FPassing clouds.8 mph82%30.09 "HgN/A
8:00 am48 °FPassing clouds.13 mph87%30.09 "HgN/A
7:30 am46 °FPassing clouds.10 mph87%30.09 "HgN/A
7:00 am45 °FPassing clouds.13 mph93%30.09 "HgN/A
6:30 am48 °FPassing clouds.10 mph82%30.09 "HgN/A
5:30 am48 °FPassing clouds.9 mph87%30.09 "HgN/A
5:00 am48 °FPassing clouds.10 mph87%30.09 "HgN/A
4:30 am48 °FPassing clouds.7 mph87%30.09 "HgN/A
4:00 am48 °FPassing clouds.12 mph87%30.09 "HgN/A
3:30 am48 °FPassing clouds.10 mph87%30.09 "HgN/A
3:00 am48 °FPassing clouds.8 mph94%30.09 "HgN/A
2:30 am50 °FPassing clouds.8 mph88%30.12 "HgN/A
2:00 am50 °FPassing clouds.10 mph88%30.12 "HgN/A
1:00 am52 °FPassing clouds.6 mph94%30.15 "HgN/A
12:30 am54 °FPassing clouds.5 mph88%30.15 "HgN/A
12:00 am54 °FPassing clouds.No wind88%30.18 "HgN/A
11:30 pm
Sat, Apr 29
54 °FPassing clouds.3 mph88%30.15 "HgN/A
Weather by CustomWeather, © 2017

See weather overviewHow to use our weather pages